Torna al catalogo

SOICAL

CONE

AttivoScienzaLEO
NORAD 4132·PAYLOAD·🇺🇸 United States

Lanciato Sep 30, 1969 da Vandenberg Space Force Base

Loading…

Prossimi Passaggi (prossime 24 ore)

TLE

AggiornatoSource: Space-Track

Epoca: Sep 14, 2026, 11:35 UTC

1 04132U 69082K   26257.48313197  .00000799  00000-0  31820-3 0  9995
2 04132  69.9914  68.6628 0009151 353.6550   6.4457 14.32144377933691

Traccia SOICAL in tempo reale con AllMySat

Download on the App Store